User: anonymous   Login
Location: Dackenheim
(49.5215°N, 8.1854°E)
Time: 07:57:54
(UTC+00:00)
Language:

PCSat - Orbit

View from above orbital plane
View from above orbital plane
View from above satellite
View from above satellite

Ground track
Ground track

The orbit is defined by the following mean orbital elements,

1 26931U          26072.88890025 +.00000000 +00000-0 +87268-4 0 00006
2 26931  67.0499 130.7527 0007005 265.1240  94.9063 14.31914503    07
Epoch (UTC): 13 March 2026 21:20:00
Eccentricity: 0.0007005
inclination: 67.0499°
perigee height: 780 km
apogee height: 790 km
right ascension of ascending node: 130.7527°
argument of perigee: 265.1240°
revolutions per day: 14.31914503
mean anomaly at epoch: 94.9063°

The dashed part of the orbit path shows where the satellite is in the earth's shadow,  

DLR